Voltar ao catálogo

COSMOS 2552

AtivoNavegaçãoHEO
NORAD 49503·PAYLOAD·🇷🇺 Russia

Lançado Nov 25, 2021 de Plesetsk Cosmodrome

Loading…

Próximas Passagens (próximas 24 horas)

TLE

AtualizadoSource: Space-Track

Época: Sep 13, 2026, 04:04 UTC

1 49503U 21113A   26256.16976961 -.00000126  00000-0  00000-0 0  9995
2 49503  62.8263 199.4814 6405224 272.3962  20.9327  2.00587516 35162

Acompanhe COSMOS 2552 em tempo real com AllMySat

Download on the App Store